Погода в Петрозаводске

Хотите узнать прогноз погоды в Петрозаводске? Тогда Вам сюда: Погода в Петрозаводске

Поиск расширенной информации на нашем сайте:

Полезная информация:

Новости сайта



02.01.2020
Опубликован Долгосрочный прогноз погоды по городам России и ближнего зарубежья на январь 2020 года.
Карты: Прогноз на январь и февраль 2020 года, Сравнение прогнозируемой аномалии приземной температуры воздуха на январь 2020 года по разным моделям.




Погода в Петрозаводске - сегодня

Время (UTC), дата Ветер
(°,м/с) 
Видим.   Явления Облачность Т
(°С)
Тd
(°С)
f(%) Тe
(°С)
Pmin
(гПа)
dP
(гПа)
Po
(мм)
O2
(г/м3)
Тmin Tmax R s Состояние
почвы
03 05.03.21 250 (З) 20000 м    3/0 средняя 
[Ac trans]
-11.9 -12.5 95 -15  1004.9  0.5  743  314  -12.1    0.0     
06 05.03.21 260 (З) 22000 м    1/1 1000 м 
[Sc]
-11.3 -12.4 92 -14  1006  1.4  744  314  -12.4    0.0  48  равномерный
сухой снег
100% 
09 05.03.21 280 (З) 20000 м    3/3 1000 м 
[Sc]
-9 -11.5 82 -11  1007.7  1.7  745  312           
12 05.03.21 300 (СЗ) 18000 м  слаб. снег  9/4 600 м средняя 
[Sc|As op]
-6 -10.2 72 -6  1008.6  1.1  746  308           
15 05.03.21 330 (СЗ) 6000 м  слаб. снег  9/5 300 м средняя 
[Sc|As op]
-8.1 -9.6 89 -10  1010.7  1.7  747  311      0.3     
18 05.03.21 280 (З) 20000 м  {снег}  ясно 
-12.2 -13.1 93 -12  1012.8  1.8  749  317    -5.1  0.3     
21 05.03.21 230 (ЮЗ) 20000 м  в посл. час снег  3/0 средняя 
[As trans]
-13 -13.8 94 -16  1013.5  0.6  749  318           
00 06.03.21 230 (ЮЗ) 20000 м  в посл. час снег  3/0 средняя 
[As trans]
-13.8 -14.7 93 -17  1013.6  0.1  749  319           
03 06.03.21 240 (ЮЗ) 20000 м    ясно 
-13.5 -14.5 92 -17  1013.1  -0.5  749  319  -15.4    0.0     
06 06.03.21 240 (ЮЗ) 20000 м    ясно 
-12.1 -13.4 90 -16  1011.6  -1.1  748  317  -15.4    0.0  48  равномерный
сухой снег
100% 
09 06.03.21 250 (З) 20000 м    4/0 верхняя 
[Ci fib]
-6 -10.3 72 -10  1009.7  -1.5  747  309           
12 06.03.21 230 (ЮЗ) 4{10}  20000 м    6/4 600 м верхняя 
[Sc|Ci fib]
-3.9 -10.4 61 -7  1006  -3.6  744  305           
15 06.03.21 190 (Ю) 5{12}  20000 м    10/0 средняя, верхняя 
[Ac As|Ci fib]
-5.6 -9.7 73 -10  1001.4  -4.6  741  306           
18 06.03.21 180 (Ю) 6-10{13}  20000 м    10/5 300 м средняя 
[Sc|As op]
-5.7 -9 78 -10  994.6  -6.7  736  304    -3.5       
21 06.03.21 180 (Ю) 6-10{15}  2000 м  слаб. снег  10/0 средняя 
[As op]
-5.6 -7 90 -10  988  -6.5  731  301           
00 07.03.21 200 (Ю) 4{13}  20000 м  {снег}  10/8 960 м средняя 
[Sc|As op]
-4.4 -5.8 90 -8  985.7  -2.2  729  299           
03 07.03.21 190 (Ю) 20000 м    10/10 750 м 
[Sc]
-4.9 -5.9 93 -4  984.5  -1.2  728  299  -5.9    0.6     
06 07.03.21 030 (СВ) 4200 м  слаб. снег  10/8 150 м средняя 
[Frnb|As op]
-5.8 -6.1 98 -5  983.6  -0.9  728  300  -5.9    49  равномерный
сухой снег
100% 
09 07.03.21 050 (СВ) 5{10}  1500 м  сильн. снег  10/10 100 м 
[Frnb|Ns]
-7.2 -7.6 97 -11  984.8  1.1  728  302           
12 07.03.21 050 (СВ) 2800 м  снег  10/8 270 м средняя 
[Sc|As op]
-7.6 -8.2 95 -13  987.6  2.7  730  304           
15 07.03.21 040 (СВ) 5{13}  27000 м  снег  10/8 360 м средняя 
[Sc|As op]
-8.5 -9.2 95 -13  991.4  3.7  733  306         
18 07.03.21 040 (СВ) 4000 м  слаб. снег  10/8 210 м средняя 
[Sc|As op]
-8.1 -8.6 96 -12  995  3.6  736  306    -5.8     
21 07.03.21 030 (СВ) 5{13}  20000 м  позёмок{снег}  6/3 600 м верхняя 
[Sc|Ci fib]
-9.8 -12 84 -14  999.3  4.1  739  310           
00 08.03.21 010 (С) 20000 м    10/6 300 м средняя 
[Sc|Ac As]
-11.9 -13.5 88 -15  1003  3.6  742  314           
03 08.03.21 330 (СЗ) 20000 м    6/4 600 м средняя 
[Sc|Ac trans]
-14.4 -15.4 92 -17  1006.3  3.2  744  318  -14.5       
Время (UTC), дата Ветер
(°,м/с) 
Видим.   Явления Облачность Т
(°С)
Тd
(°С)
f(%) Тe
(°С)
Pmin
(гПа)
dP
(гПа)
Po
(мм)
O2
(г/м3)
Тmin Tmax R s Состояние
почвы

Для получения пояснительной информации подведите курсор к названию столбца.

ПОГОДА в Петрозаводске - архив

Всё, что Вы хотите узнать о погоде в Петрозаводске - удобно и подробно!

Выберите нужную дату (начиная с 1 января 2019* года) и нажмите кнопку "Найти".
Будут отображены архивные сводки погоды по пункту Петрозаводск, начиная с указанной даты.


Отображать данные в формате CSV (для использования в таблицах Excel)


Внимание! Наш архив погоды предназначен исключительно для личного некоммерческого использования в познавательных целях. Если Вам необходимы официальные справки о состоянии погоды (для производственных, юридических, коммерческих и т.п. целей), обращайтесь в органы Росгидромета.

*Примечание: данная дата относится к архиву по метеостанциям СССР (Россия, СНГ, Балтия).
Архив по метеостанциям Зарубежной Европы и Азии (кроме Китая) хранится 10 дней, по другим регионам земного шара (Китай, Африка, Америка, Австралия, Океания) - 1 день.

Петрозаводск - район местоположения метеостанции


Название, широта, долгота, высота метеостанции:
Петрозаводск 61.8°ш. 34.3°д. 110 м над ур. моря [Российская Федерация]

Дополнительная информация

В oтличие oт бoльшинства пoгoдных сайтoв мы публикуем пoдрoбную метеoинфoрмацию в детальнoм прoфессиoнальнoм фoрмате.

Характеристики температуры и влажнoсти вoздуха измеряются на высoте 2 м в тени вдали oт зданий и деревьев.
Скoрoсть ветра измеряется на высoте 10 м (на урoвне рoста челoвека скoрoсть ветра ниже в 1.5-2 раза). Если метеoстанция нахoдится в гoрoде или в лесу, тo скoрoсть ветра занижена на 2-4 м/с пo сравнению с oткрытым местoм. Скoрoсть ветра над акватoриями крупных рек и oзёр, а также на вершинах хoлмoв на 2-5 м/с выше, чем в oбычных услoвиях.
Атмoсфернoе давление в разных тoчках местнoсти мoжет значительнo oтличаться oт давления на метеoстанции, в зависимoсти oт услoвий рельефа (при пoдъёме на 10 м давление пoнижается примернo на 1 мм рт.ст.).